Weather in Bylym

Russia / The Kabardino-Balkar Republic     43°27′44″N   43°02′15″E
temp.,
°C
wind,
m/s
gust,
m/s
humid.,
%
clouds,
%
prec.,
mm/h
press.,
hPa
HPBL,
m
4 august, wed
wed400:00+12wsw547521 0.0 102041
03:00+14sw436857 0.0 101945
06:00+13sw43760 0.0 101931
09:00+19ene21590 0.0 1018867
12:00+20ne326418 0.1 10181148
15:00+18ene227494 6.5 1018370
18:00+16se1185100 8.6 101939
21:00+13wsw3389100 15.2 102128
5 august, thu
thu500:00+12sw43834 0.6 102032
03:00+12sw337782 0.6 101923
06:00+12sw33782 0.0 102027
09:00+17e22740 0.0 1018583
12:00+19ene437326 0.3 1017982
15:00+19ene3375100 1.9 1017779
18:00+17ene228595 1.0 1017388
21:00+13ssw22901 2.9 101819
6 august, fri
fri600:00+13ssw33840 0.0 101726
03:00+12sw43780 0.0 101626
06:00+12sw43760 0.0 101638
09:00+20e21550 0.0 1013412
12:00+21ene33620 0.0 1012816
15:00+22ene336424 0.1 1011944
18:00+19e228284 0.1 101182
21:00+15ssw3381100 0.3 101221
7 august, sat
sat700:00+15sw446072 0.0 101141
03:00+14sw5560100 0.0 101154
06:00+14sw54665 0.0 101040
09:00+23n11485 0.0 1008504
12:00+22ne326222 0.0 1009646
15:00+22wsw2364100 3.5 1009644
18:00+18ssw017488 0.6 101113
21:00+15ssw32693 1.0 101320
8 august, sun
sun800:00+13sw446899 0.1 101446
03:00+14sw4464100 0.1 101444
06:00+14sw436936 0.0 101532
09:00+19e226291 0.0 1014486
12:00+20ne326595 1.4 1014932
15:00+18ne237487 7.6 1016402
18:00+17e0179100 4.7 101759
21:00+13sw2283100 7.8 101813